Location: Newark
(55.8871°S, 37.4681°E)
Time: 12:44:29
(UTC+00:00)

N. Korean satellite - Visible Passes

Search period start: 23 October 2019 00:00
Search period end: 02 November 2019 00:00
Orbit: 455 x 508 km, 97.2° (Epoch: 22 October)

Date Brightness Start Highest point End Pass type
(mag) Time Alt. Az. Time Alt. Az. Time Alt. Az.
23 Oct 10.2 00:52:45 10° E 00:55:04 16° ESE 00:57:23 10° SSE visible
24 Oct 10.8 00:29:31 10° ESE 00:30:04 10° SE 00:30:36 10° SE visible
25 Oct 10.8 17:34:58 10° SW 17:35:46 11° SW 17:36:32 10° WSW visible
26 Oct 9.9 01:09:29 10° ENE 01:12:21 21° ESE 01:15:13 10° S visible
27 Oct 10.3 00:45:22 10° E 00:47:18 14° SE 00:49:14 10° SSE visible
29 Oct 10.5 17:26:33 10° SSW 17:27:57 12° SW 17:29:20 10° WSW visible
30 Oct 10.0 01:01:56 10° ENE 01:04:32 18° ESE 01:07:08 10° SSE visible
31 Oct 10.5 00:38:04 10° ESE 00:39:29 12° SE 00:40:54 10° SSE visible
